DW3015 Weather Reports


time (UTC)temp
C
wind
direction
speed
KPH
gust
KPH
rain 1hr
cm
rain 24hr
cm
rain mn
cm
humidity
%
barometer
mb
20260502163032 15 284 0.0 0.0 0.00 0.00 0.00 32 1021.6
20260502161523 15 317 0.0 0.0 0.00 0.00 0.00 36 1021.7
20260502151513 13 263 0.0 0.0 0.00 0.00 0.00 44 1021.5
20260502123045 2 38 0.0 0.0 0.00 0.00 0.00 85 1021.4
20260502121547 1 337 0.0 0.0 0.00 0.00 0.00 85 1021.2
20260502114540 1 0.0 0.0 0.00 0.00 0.00 85 1021.0
20260502113039 1 0.0 0.0 0.00 0.00 0.00 85 1020.9
20260502111537 1 0.0 0.0 0.00 0.00 0.00 84 1020.7
20260502110036 1 0.0 0.0 0.00 0.00 0.00 84 1020.6
20260502104543 1 0.0 0.0 0.00 0.00 0.00 84 1020.5
20260502103032 2 0.0 0.0 0.00 0.00 0.00 83 1020.4
20260502101528 2 0.0 0.0 0.00 0.00 0.00 82 1020.3
20260502091524 2 337 0.0 0.0 0.00 0.00 0.00 80 1019.9
20260502071513 4 337 0.0 0.0 0.00 0.00 0.00 74 1019.5
20260502070008 4 338 0.0 0.0 0.00 0.00 0.00 73 1019.6
20260502064509 5 338 0.0 0.0 0.00 0.00 0.00 72 1019.6
20260502063003 5 338 0.0 0.0 0.00 0.00 0.00 70 1019.7
20260502061502 5 338 0.0 0.0 0.00 0.00 0.00 70 1019.7
20260502054557 5 338 0.0 0.0 0.00 0.00 0.00 67 1019.7
20260502053055 6 338 0.0 0.0 0.00 0.00 0.00 65 1019.6
20260502051624 6 338 0.0 0.0 0.00 0.00 0.00 64 1019.7
20260502050048 7 338 0.0 0.0 0.00 0.00 0.00 62 1019.6
20260502044547 7 338 0.0 0.0 0.00 0.00 0.00 59 1019.5
20260502043048 8 338 0.0 0.0 0.00 0.00 0.00 58 1019.3
20260502041545 8 338 0.0 0.0 0.00 0.00 0.00 56 1019.3
20260502040045 8 338 0.0 0.0 0.00 0.00 0.00 57 1019.2
20260502034546 8 338 0.0 0.0 0.00 0.00 0.00 55 1019.1
20260502033051 10 338 0.0 0.0 0.00 0.00 0.00 52 1019.0
20260502031602 10 338 0.0 0.0 0.00 0.00 0.00 51 1018.9
20260502030045 10 337 0.0 0.0 0.00 0.00 0.00 51 1018.7
20260502024546 10 342 0.0 0.0 0.00 0.00 0.00 51 1018.5
20260502023042 10 340 0.0 0.0 0.00 0.00 0.00 53 1018.1
20260502021541 10 346 0.0 0.0 0.00 0.00 0.00 52 1017.9
20260502020046 11 346 0.0 0.0 0.00 0.00 0.00 48 1017.5
20260502014541 11 346 0.0 0.0 0.00 0.00 0.00 44 1017.2
20260502013041 12 360 0.0 0.0 0.00 0.00 0.00 43 1017.0
20260502011547 13 327 0.0 0.0 0.00 0.00 0.00 45 1016.8
20260502010039 13 328 0.0 0.0 0.00 0.00 0.00 44 1016.6
20260502004539 14 346 0.0 0.0 0.00 0.00 0.00 44 1016.4
20260502003039 15 341 0.0 0.0 0.00 0.00 0.00 43 1016.1
20260502001540 16 320 0.0 0.0 0.00 0.00 0.00 40 1016.1
20260502000037 17 344 0.0 0.0 0.00 0.00 0.00 39 1015.9
20260501234548 17 338 0.0 0.0 0.00 0.00 0.00 40 1015.8
20260501233036 18 317 0.0 0.0 0.00 0.00 0.00 36 1015.8
20260501231547 18 343 0.0 0.0 0.00 0.00 0.00 37 1015.7
20260501230038 18 323 0.0 0.0 0.00 0.00 0.00 35 1015.7
20260501224532 18 315 0.0 0.0 0.00 0.00 0.00 37 1015.8
20260501223031 18 322 0.0 0.0 0.00 0.00 0.00 35 1015.9
20260501221532 19 334 0.0 0.0 0.00 0.00 0.00 34 1015.9
20260501220029 20 302 0.0 0.0 0.00 0.00 0.00 32 1016.1
20260501214538 19 355 0.0 0.0 0.00 0.00 0.00 35 1016.1
20260501213027 17 355 0.0 0.0 0.00 0.00 0.00 37 1016.2
20260501211526 17 5 0.0 0.0 0.00 0.00 0.00 38 1016.4
20260501210025 18 355 0.0 0.0 0.00 0.00 0.00 33 1016.5
20260501204523 19 317 0.0 0.0 0.00 0.00 0.00 35 1016.8
20260501203022 18 317 0.0 0.0 0.00 0.00 0.00 33 1016.9
20260501201522 20 350 0.0 0.0 0.00 0.00 0.00 32 1017.0
20260501200021 19 334 0.0 0.0 0.00 0.00 0.00 31 1017.0
20260501194517 18 41 0.0 0.0 0.00 0.00 0.00 33 1017.2
20260501193025 19 273 0.0 0.0 0.00 0.00 0.00 31 1017.2
20260501191514 18 296 0.0 0.0 0.00 0.00 0.00 38 1017.4
20260501190013 18 304 0.0 0.0 0.00 0.00 0.00 38 1017.4
20260501184512 17 351 0.0 0.0 0.00 0.00 0.00 41 1017.3
20260501183012 16 281 0.0 0.0 0.00 0.00 0.00 40 1017.5
20260501181510 16 233 0.0 0.0 0.00 0.00 0.00 38 1017.5
20260501180018 18 331 0.0 0.0 0.00 0.00 0.00 37 1017.5
20260501174510 17 325 0.0 0.0 0.00 0.00 0.00 39 1017.5
20260501173005 17 287 0.0 0.0 0.00 0.00 0.00 41 1017.6
20260501171502 17 218 0.0 0.0 0.00 0.00 0.00 38 1017.8
20260501170002 16 287 0.0 0.0 0.00 0.00 0.00 40 1018.0
20260501164600 16 275 0.0 0.0 0.00 0.00 0.00 40 1018.1